Regional Weather Roundup
Issued by NWS Sterling, VA

Home | Current Version | Previous Version | Graphics & Text | Print | Product List | Glossary On
Versions: 1 2 3 4 5 6 7 8 9 10 11 12 13 14 15 16 17 18 19 20 21 22 23 24 25 26 27 28 29 30 31 32 33 34 35 36 37 38 39 40 41 42 43 44 45 46 47 48 49 50
000
ASUS41 KLWX 152210
RWRLWX

REGIONAL WEATHER ROUNDUP
NATIONAL WEATHER SERVICE BALTIMORE MD/WASHINGTON DC
600 PM EDT MON SEP 15 2014

Note: "FAIR" indicates few or no clouds below 12,000 feet
with no significant weather and/or obstructions to visibility.
 TC=TEMPERATURE CELSIUS

 * =Non NWS site. Station does not report precipitation (e.g. rain,
    snow, etc.), thunder, or fog.

DCZ001-MDZ009-015-VAZ040>042-051-053>054-152300-
WASHINGTON METRO

CITY           SKY/WX    TMP DP  RH WIND       PRES   REMARKS
WASHINGTON NAT PTSUNNY   75  51  43 SW9       30.13S
DULLES         PTSUNNY   72  52  49 SW5       30.12F
ANDREWS AFB    MOSUNNY   72  54  53 SW6       30.12F
QUANTICO       MOSUNNY   73  54  51 CALM      30.13S
COLLEGE PARK*  MOSUNNY   73  54  49 E5        30.12S
LEESBURG*      MOSUNNY   73  55  53 S5        30.13F
GAITHERSBURG*  PTSUNNY   70  52  52 S3        30.16S

$$

MDZ006>007-011-014-152300-
BALTIMORE METRO

CITY           SKY/WX    TMP DP  RH WIND       PRES   REMARKS
BWI AIRPORT    PTSUNNY   69  53  56 SE7       30.13S
MD SCIENCE CTR   N/A     71  52  50 MISG      30.13F
ANNAPOLIS      MOSUNNY   69  53  56 SE8       30.13F
FORT MEADE*    MOSUNNY   68  55  64 SE7       30.15S

$$

MDZ012-015-019>023-152300-
MARYLAND EASTERN SHORE

CITY           SKY/WX    TMP DP  RH WIND       PRES   REMARKS
OCEAN CITY     SUNNY     69  52  54 SE5       30.15S
SALISBURY        N/A    N/A N/A N/A MISG        N/A
BAY BRIDGE AP*   N/A     70  50  49 SE3       30.14S
CAMBRIDGE*     MOSUNNY   72  50  46 CALM      30.13F
EASTON*        PTSUNNY   72  54  53 CALM      30.17F

$$

MDZ017>025-152300-
SOUTHERN MARYLAND

CITY           SKY/WX    TMP DP  RH WIND       PRES   REMARKS
PATUXENT RIVER PTSUNNY   70  55  59 SE8       30.13F
ST INIGOES     MOSUNNY   69  54  58 SE7       30.13F
LEONARDTOWN*   PTSUNNY   68  54  60 E5        30.14F

$$

MDZ003>005-152300-
NORTH CENTRAL MARYLAND

CITY           SKY/WX    TMP DP  RH WIND       PRES   REMARKS
FREDERICK*     SUNNY     75  54  46 CALM      30.14F
HAGERSTOWN APT MOSUNNY   69  48  47 S5        30.11F
WESTMINSTER*   PTSUNNY   70  52  52 SW5       30.13F

$$

MDZ501>502-152300-
WESTERN MARYLAND

CITY           SKY/WX    TMP DP  RH WIND       PRES   REMARKS
OAKLAND*       PTSUNNY   59  36  41 SW5       30.16S
CUMBERLAND*    PTSUNNY   73  50  43 S3        30.12F

$$

VAZ025>031-152300-
SHENANDOAH VALLEY

CITY           SKY/WX    TMP DP  RH WIND       PRES   REMARKS
WINCHESTER*    MOSUNNY   70  54  56 SE8       30.11F
STAUNTON*      MOSUNNY   72  56  57 SE8       30.12F

$$

WVZ021-048>050-054>055-152300-
EASTERN WEST VIRGINIA PANHANDLE

CITY           SKY/WX    TMP DP  RH WIND       PRES   REMARKS
MARTINSBURG    MOSUNNY   70  50  49 SE3       30.12F
PETERSBURG*    MOSUNNY   76  51  42 N6        30.10F

$$

VAZ036>039-050-152300-
CENTRAL FOOTHILLS

CITY           SKY/WX    TMP DP  RH WIND       PRES   REMARKS
CHARLOTTESVILL PTSUNNY   73  57  57 S5        30.11F
ORANGE*        PTSUNNY   72  55  56 E3        30.12F

$$

VAZ055>057-152300-
NORTH AND CENTRAL PIEDMONT

CITY           SKY/WX    TMP DP  RH WIND       PRES   REMARKS
FREDERICKSBRG* MOSUNNY   75  57  53 SW3       30.11F
STAFFORD*      MOSUNNY   72  58  61 CALM      30.16S

$$

NCZ024-NYZ072-PAZ021-071-VAZ022-071-152300-
OTHER REGIONAL OBSERVATIONS

CITY           SKY/WX    TMP DP  RH WIND       PRES   REMARKS
NEW YORK CITY  SUNNY     69  43  38 CALM      30.14F
PHILADELPHIA   MOSUNNY   71  47  42 SW8       30.13S
PITTSBURGH     CLOUDY    67  49  52 SW6       30.10S
ROANOKE        CLOUDY    71  62  73 SE10      30.14F
RICHMOND       CLOUDY    74  57  55 S9        30.12F
RALEIGH        CLOUDY    71  64  78 S5        30.14F

$$

ANZ530>537-152300-
MARINE OBSERVATIONS

STATION/POSITION TIME  TEMP    WIND        PRES
                       AIR SEA DIR/SP/G
                 (UTC) (F)     (DEG/KT/KT) (MB)
THOMAS PT LIGHT  2200   69 76  150/  4/  6 1021.3F
BALT KEY BRIDGE  2200   69     130/  6/  8 1020.0F
COVE POINT       2200   69     160/  6/  8 1020.5R
LEWISETTA        2200   70 75  150/  7/  9 1020.0S
SOLOMONS ISLAND  2200      77                N/A
PINEY POINT      2200          150/ 10/ 11   N/A

$$




USA.gov is the U.S. government's official web portal to all federal, state and local government web resources and services.